sat.trackr.live / text

‹ back to catalog

STARLINK-33761

NORAD 63455 · 2025-069Y

PAYLOAD ACTIVE UNKNOWN

§ Identity

Operator
Country
US
Launch date
2025-04-04
Launch site
AFWTR
Launch vehicle
Mass (kg)
RCS (m²)

Purposes: comms

External: N2YO · Heavens-Above · Gunter

§ Orbital elements

Epoch: 2026-09-20T10:35:17.292768Z

Period
93.85 min
Inclination
53.1597°
Eccentricity
0.0001237
Mean motion
15.34402336 rev/d
Perigee alt
461.9 km
Apogee alt
463.5 km
Semi-major
6,840.8 km
B*
2.7153e-4
RAAN
309.9294°
Arg perigee
100.9864°
Mean anomaly
259.1278°
Rev number
8,333

§ Raw data

STARLINK-337611 63455U 25069Y   26263.44117237  .00008809  00000+0  27153-3 0  99982 63455  53.1597 309.9294 0001237 100.9864 259.1278 15.34402336 83334

JSON: /api/v1/satellites/63455 · /tle

For live sub-satellite position, see the globe view (requires WebGL).

§ Visibility from observer

Set your observer location to see the next 7 days of passes ≥ 10°. The values pass through the URL so the page stays shareable.

No JS? Fill the form by hand. The geolocation button needs JavaScript.